Temperature
10 10 9 9 8 8 8 8 7 6 5 4 4 3 3 2 1 1 1 1 2 2 1 1 1 1 0 -0 -1 -1 -2 -2 -2 -3 -3 -3 -3 -2
10 9 8 7 7 7 6 6 6 5 4 3 2 2 1 1 1 0 -0 -0 0 0 0 -0 -1 -1 -1 -2 -2 -2 -2 -3 -3 -3 -3 -3 -3 -3
9 8 7 5 5 5 5 5 4 4 3 2 2 1 1 0 -0 -1 -1 -1 -2 -1 -1 -1 -2 -2 -2 -3 -3 -3 -3 -3 -3 -4 -4 -4 -3 -3
7 6 5 4 4 4 4 3 3 3 2 1 1 0 -0 -1 -1 -1 -2 -2 -2 -2 -2 -2 -3 -3 -3 -3 -3 -4 -4 -4 -4 -4 -4 -4 -4 -4
5 4 4 3 3 3 3 2 2 1 1 -0 -1 -1 -2 -2 -2 -3 -3 -4 -4 -3 -3 -3 -3 -3 -3 -4 -4 -4 -4 -4 -4 -4 -4 -4 -4 -4
3 2 2 2 2 2 2 1 1 -0 -1 -2 -2 -3 -4 -4 -4 -5 -6 -6 -6 -5 -4 -4 -4 -4 -4 -4 -4 -4 -4 -4 -4 -4 -4 -4 -4 -4
1 1 1 1 1 1 1 0 -1 -2 -2 -3 -4 -5 -6 -6 -6 -7 -7 -7 -7 -6 -5 -5 -5 -4 -4 -4 -4 -4 -4 -4 -4 -4 -4 -5 -5 -5
1 1 1 1 1 0 -0 -1 -2 -3 -4 -5 -6 -6 -7 -7 -7 -8 -8 -8 -8 -7 -7 -7 -6 -5 -4 -4 -4 -4 -4 -4 -4 -4 -5 -5 -5 -5
1 1 0 0 -0 -1 -2 -2 -3 -4 -5 -6 -7 -7 -7 -8 -8 -8 -8 -8 -8 -8 -8 -8 -6 -6 -5 -4 -4 -4 -4 -4 -4 -5 -5 -5 -5 -6
0 -0 -1 -1 -2 -2 -2 -3 -4 -5 -6 -7 -8 -8 -8 -8 -8 -8 -8 -9 -8 -8 -8 -8 -7 -7 -6 -5 -4 -4 -4 -4 -4 -5 -5 -5 -6 -6
-2 -2 -2 -2 -3 -3 -4 -5 -6 -7 -7 -6 -7 -7 -7 -8 -8 -9 -8 -9 -9 -8 -8 -8 -7 -8 -7 -5 -4 -4 -4 -4 -4 -5 -5 -5 -5 -6
-2 -3 -3 -3 -4 -6 -6 -7 -7 -7 -7 -7 -7 -7 -7 -7 -7 -8 -8 -9 -9 -8 -7 -8 -8 -8 -8 -5 -5 -5 -5 -4 -4 -4 -5 -5 -5 -6
-4 -4 -5 -5 -6 -7 -7 -8 -8 -7 -8 -7 -7 -7 -7 -7 -8 -8 -8 -8 -8 -8 -7 -9 -8 -8 -9 -8 -6 -5 -5 -5 -5 -5 -5 -5 -6 -6
-5 -6 -7 -7 -7 -7 -7 -8 -7 -8 -8 -7 -7 -7 -7 -7 -7 -7 -7 -8 -8 -7 -7 -8 -8 -8 -8 -9 -8 -6 -5 -5 -5 -5 -5 -6 -6 -7
-7 -7 -7 -7 -7 -7 -7 -7 -7 -8 -8 -8 -8 -7 -7 -7 -7 -7 -7 -7 -7 -7 -6 -6 -7 -7 -8 -9 -8 -7 -6 -5 -5 -6 -6 -7 -7 -7
-8 -8 -8 -8 -7 -8 -8 -8 -8 -8 -8 -8 -8 -7 -7 -7 -7 -7 -7 -7 -7 -6 -6 -6 -7 -7 -8 -8 -9 -8 -7 -7 -6 -7 -7 -7 -7 -8
-8 -8 -8 -8 -8 -8 -8 -8 -8 -8 -8 -8 -8 -8 -8 -8 -7 -7 -7 -7 -7 -6 -6 -6 -7 -7 -8 -9 -9 -7 -7 -7 -8 -8 -9 -9 -8 -8
-8 -9 -9 -9 -8 -8 -8 -8 -8 -8 -8 -8 -8 -8 -8 -8 -8 -7 -8 -7 -7 -7 -7 -6 -7 -7 -8 -8 -8 -8 -8 -8 -8 -9 -9 -9 -8 -8
-9 -9 -8 -8 -8 -8 -8 -8 -8 -8 -8 -8 -8 -8 -8 -8 -8 -8 -8 -7 -7 -7 -7 -7 -7 -9 -10 -9 -8 -8 -8 -8 -8 -8 -8 -8 -8 -7
-9 -8 -8 -8 -8 -8 -8 -8 -8 -8 -8 -8 -8 -8 -8 -8 -8 -8 -8 -8 -7 -7 -7 -7 -8 -8 -9 -9 -9 -8 -7 -8 -8 -8 -8 -8 -7 -7
-9 -8 -8 -8 -8 -8 -8 -8 -8 -8 -8 -8 -8 -8 -8 -8 -8 -8 -8 -8 -8 -8 -8 -7 -7 -8 -8 -9 -9 -8 -7 -7 -8 -8 -8 -8 -7 -7
-9 -8 -8 -8 -8 -8 -8 -8 -8 -8 -8 -8 -8 -8 -8 -8 -8 -8 -8 -8 -8 -8 -8 -7 -7 -8 -8 -8 -8 -8 -7 -7 -6 -7 -7 -7 -7 -7
-8 -8 -8 -8 -8 -8 -8 -8 -8 -8 -8 -8 -8 -8 -8 -8 -8 -8 -8 -8 -8 -8 -8 -8 -8 -8 -8 -8 -8 -8 -8 -7 -7 -7 -5 -5 -6 -6
Wind_Speed
8 8 6 5 5 4 3 3 5 4 4 3 3 4 6 6 6 8 10 11 14 18 20 21 22 23 23 24 24 24 25 25 24 25 25 25 25 26
7 9 8 7 6 5 5 5 4 3 3 2 2 2 4 5 7 10 12 14 17 18 19 21 22 24 24 25 25 25 25 25 25 26 26 26 26 26
10 11 10 9 7 6 6 5 5 3 2 1 1 2 4 6 8 10 12 13 14 17 19 21 23 24 24 24 24 25 25 25 25 26 26 26 27 27
12 12 11 9 9 7 6 5 4 3 2 3 4 5 6 7 8 10 12 13 14 18 21 22 23 24 24 24 23 23 24 25 25 26 27 28 29 29
12 12 11 11 9 7 6 5 4 3 3 4 5 5 6 6 9 10 11 12 14 16 19 20 21 22 22 22 23 24 25 26 27 27 28 28 29 30
11 11 10 9 8 7 5 5 4 4 4 5 6 6 7 7 8 9 9 9 10 12 16 18 19 20 22 24 25 26 26 26 27 27 27 28 28 29
11 9 8 8 8 6 4 4 5 4 5 6 7 7 7 7 7 8 10 10 11 11 11 10 12 13 17 20 22 24 24 25 26 26 27 28 29 29
10 8 7 7 6 4 4 6 7 6 6 6 7 8 9 9 8 9 10 11 11 7 10 12 12 14 15 17 21 24 26 27 27 28 28 29 29 30
9 7 5 5 4 2 2 4 6 7 9 8 10 10 10 9 10 11 12 12 13 12 13 15 14 15 14 19 24 26 28 28 29 29 29 28 28 29
7 6 5 4 2 2 3 4 5 6 7 7 8 9 9 10 11 11 12 14 15 13 13 14 14 14 14 16 23 26 28 28 28 28 28 27 27 27
5 4 3 1 1 3 3 4 6 6 6 9 12 14 15 16 15 11 11 11 12 12 11 10 11 13 14 15 18 22 23 24 26 27 27 28 27 27
4 3 2 2 2 3 3 4 6 7 8 8 9 11 12 13 13 11 9 9 9 8 7 6 10 10 8 10 10 12 15 20 24 26 27 27 26 18
2 1 2 3 5 4 4 4 7 9 9 9 9 9 8 7 7 8 8 8 10 10 8 6 8 9 8 8 10 12 13 13 14 16 20 23 23 19
1 1 2 4 5 6 6 7 9 9 7 7 8 8 7 7 7 8 11 13 14 16 17 13 9 11 11 14 12 12 13 13 13 14 13 18 19 21
1 2 3 5 6 5 5 7 7 6 6 7 7 8 8 8 9 9 10 12 15 18 20 20 15 14 13 13 13 15 15 14 14 12 11 11 12 12
1 1 3 4 4 5 5 5 4 5 6 7 8 8 8 8 9 8 9 9 10 11 11 15 15 15 14 16 15 17 16 12 12 14 14 14 14 13
2 3 4 4 3 3 4 4 4 5 5 6 7 8 8 9 9 8 8 8 9 11 12 10 10 12 15 16 16 17 17 16 15 14 14 16 15 14
3 4 4 4 4 4 5 5 5 5 5 6 7 8 8 9 9 9 9 10 11 12 13 12 11 12 12 12 18 18 16 15 14 14 14 16 17 15
3 3 4 4 4 5 5 6 6 6 6 7 8 8 8 9 9 10 10 10 11 12 13 12 12 12 14 16 10 13 14 15 16 16 15 15 17 16
3 4 4 4 5 5 6 6 7 7 7 8 8 8 8 9 9 10 10 12 12 13 14 13 12 12 14 17 17 17 16 17 15 16 16 15 16 20
4 4 5 5 6 6 7 7 8 8 9 9 9 9 9 9 10 11 11 16 15 14 15 15 14 18 15 14 14 16 15 14 17 16 17 16 17 16
5 5 6 6 6 7 7 7 8 9 10 9 9 9 9 9 11 13 13 13 13 14 17 16 16 15 13 15 17 19 20 17 15 19 22 22 14 10
6 6 7 7 7 7 7 8 10 10 10 10 10 10 10 10 11 12 13 14 14 16 17 17 15 14 14 15 17 17 21 20 16 16 14 15 21 27
Wind_Direction
185 163 144 127 117 111 112 133 151 163 169 150 171 187 202 219 229 264 279 282 291 294 295 296 295 293 291 289 287 286 284 284 283 282 280 279 278 276
155 146 136 132 121 107 99 84 79 112 142 150 172 167 203 240 256 276 282 285 283 285 288 290 291 289 287 285 283 283 282 282 281 280 279 278 278 277
148 143 135 130 119 108 99 93 86 91 157 158 185 207 232 249 265 272 278 282 283 282 284 288 288 286 284 283 282 281 280 280 279 279 280 280 280 279
145 136 131 124 114 110 107 104 108 108 161 222 223 221 240 256 268 276 279 280 280 283 287 288 286 285 284 282 280 278 278 279 280 280 280 280 279 278
135 130 127 124 120 121 122 129 140 160 195 232 253 249 256 262 275 277 277 278 280 282 286 287 286 285 283 281 280 280 280 280 279 278 277 277 276 276
113 115 119 125 130 137 142 153 164 186 211 237 255 261 264 266 269 279 285 286 288 290 288 286 285 283 281 281 280 279 279 278 277 276 275 274 273 272
103 103 109 121 137 147 155 170 186 211 228 242 256 265 267 271 276 285 290 296 295 293 290 288 287 284 284 281 278 276 275 275 276 275 274 273 271 270
109 104 106 108 123 143 189 206 213 225 238 249 262 268 277 284 290 291 295 296 297 294 294 293 292 288 285 281 279 279 278 278 277 276 275 274 273 272
106 111 111 115 121 159 217 245 251 258 259 266 273 278 287 292 296 292 287 287 287 290 293 290 289 286 285 281 279 279 280 280 280 279 278 276 274 272
103 116 125 138 165 212 229 242 253 256 263 269 278 285 287 288 284 283 286 286 285 282 278 281 285 285 286 283 282 280 280 280 281 280 279 278 277 276
122 124 123 128 193 269 265 262 270 273 269 277 285 286 286 285 285 285 282 281 284 286 285 280 283 289 289 285 281 280 278 278 280 281 281 281 280 279
119 108 69 3 338 317 291 277 284 295 299 293 286 283 282 281 278 268 268 269 275 283 281 273 284 300 295 281 281 284 283 280 279 279 279 279 279 278
89 54 42 348 332 337 318 292 296 300 296 293 292 290 286 280 276 270 264 257 260 262 270 282 279 280 272 286 292 288 284 283 285 283 283 281 279 274
28 0 347 336 338 332 313 305 301 297 288 286 285 287 290 292 290 284 275 264 256 259 267 271 268 271 275 281 285 288 289 289 288 286 284 283 279 274
354 359 350 341 321 304 302 304 299 283 280 280 282 287 290 291 290 286 279 270 265 262 262 258 254 260 262 268 274 283 291 293 287 280 278 277 278 276
306 325 318 317 298 298 303 290 277 280 285 283 287 290 293 289 284 285 288 295 291 284 265 250 248 252 260 265 271 277 279 277 280 283 283 281 276 270
309 300 307 311 308 310 303 298 292 285 282 284 288 290 291 290 289 290 287 288 281 288 295 288 267 257 256 262 269 269 272 274 274 278 281 282 278 272
297 295 302 311 317 317 314 310 306 298 292 289 286 284 287 289 291 290 284 281 282 285 288 293 296 293 284 266 242 257 267 273 278 277 277 281 282 278
286 294 302 307 308 305 302 300 297 295 292 284 280 281 282 283 285 287 287 285 283 284 286 289 288 287 291 296 278 236 260 279 284 283 280 277 280 282
289 290 294 296 296 295 294 293 293 293 288 283 281 279 277 278 281 283 283 283 286 288 289 286 281 278 279 288 291 288 267 268 276 281 284 283 280 280
287 285 285 286 286 285 285 285 285 285 285 284 281 279 277 276 277 279 282 284 285 285 285 285 283 282 281 282 282 283 283 263 257 270 282 285 287 288
282 282 282 281 281 281 281 281 282 282 284 281 281 280 279 276 276 279 280 283 284 283 284 285 286 285 281 281 284 290 295 294 281 263 261 260 269 277
280 281 282 281 278 277 277 277 279 280 281 281 281 280 279 278 278 278 280 281 282 284 286 288 290 290 287 285 287 290 293 297 299 297 285 262 253 255
Height
1479 1481 1484 1486 1489 1492 1494 1496 1498 1498 1499 1499 1501 1500 1500 1500 1499 1498 1496 1494 1493 1491 1489 1486 1484 1481 1479 1477 1474 1473 1471 1470 1469 1468 1468 1467 1467 1466
1472 1474 1476 1478 1481 1484 1486 1489 1490 1492 1493 1493 1495 1495 1495 1493 1492 1491 1489 1486 1484 1482 1480 1477 1475 1473 1471 1469 1467 1465 1463 1462 1461 1460 1460 1459 1459 1459
1465 1467 1469 1472 1475 1478 1480 1483 1484 1486 1488 1488 1489 1488 1488 1487 1485 1483 1481 1479 1476 1474 1472 1469 1467 1465 1463 1461 1459 1457 1455 1454 1453 1452 1451 1451 1450 1450
1458 1461 1464 1467 1470 1473 1476 1478 1480 1482 1483 1483 1482 1482 1481 1480 1478 1476 1474 1472 1469 1467 1465 1462 1459 1457 1455 1453 1451 1449 1448 1446 1445 1443 1442 1441 1441 1440
1454 1457 1460 1464 1467 1470 1473 1475 1476 1477 1477 1477 1476 1475 1474 1473 1471 1469 1467 1465 1462 1460 1457 1455 1452 1450 1448 1446 1444 1442 1440 1438 1436 1435 1433 1432 1431 1430
1452 1456 1460 1463 1466 1468 1470 1471 1471 1472 1472 1471 1471 1469 1468 1466 1465 1463 1461 1459 1457 1454 1451 1448 1445 1443 1442 1439 1437 1434 1432 1430 1428 1426 1424 1422 1421 1420
1452 1456 1459 1462 1464 1465 1466 1466 1467 1467 1467 1467 1466 1464 1463 1462 1461 1459 1457 1454 1451 1448 1445 1442 1439 1436 1434 1432 1429 1427 1424 1422 1419 1417 1415 1413 1412 1410
1452 1456 1458 1460 1461 1461 1462 1462 1462 1463 1462 1462 1461 1460 1459 1458 1456 1454 1452 1449 1445 1443 1440 1436 1434 1430 1427 1424 1422 1419 1416 1413 1410 1408 1406 1404 1402 1400
1453 1454 1456 1456 1457 1457 1458 1458 1458 1458 1458 1458 1457 1456 1455 1453 1451 1448 1447 1444 1441 1438 1435 1429 1427 1423 1420 1416 1414 1411 1407 1404 1401 1398 1396 1393 1391 1390
1452 1452 1453 1453 1454 1454 1454 1454 1454 1453 1453 1452 1451 1450 1448 1447 1446 1444 1442 1439 1435 1433 1430 1425 1421 1417 1413 1409 1406 1402 1399 1395 1392 1389 1386 1383 1381 1379
1450 1451 1452 1452 1451 1451 1451 1451 1450 1450 1448 1446 1445 1444 1442 1441 1440 1438 1436 1433 1429 1427 1425 1421 1415 1411 1406 1401 1397 1393 1390 1386 1383 1379 1376 1373 1370 1368
1450 1450 1450 1449 1448 1448 1448 1448 1447 1446 1444 1442 1441 1439 1438 1436 1435 1433 1431 1428 1424 1420 1418 1415 1410 1406 1396 1391 1389 1386 1381 1377 1373 1370 1366 1363 1360 1357
1449 1448 1447 1447 1446 1445 1445 1444 1443 1442 1440 1439 1437 1435 1434 1432 1430 1428 1426 1423 1419 1415 1413 1410 1404 1400 1395 1385 1379 1377 1373 1368 1364 1360 1356 1353 1350 1347
1448 1446 1445 1444 1443 1442 1441 1440 1439 1438 1437 1435 1434 1432 1430 1428 1426 1423 1420 1417 1414 1410 1408 1404 1398 1394 1388 1380 1373 1368 1366 1361 1356 1351 1347 1343 1341 1338
1446 1444 1443 1441 1440 1439 1438 1437 1436 1435 1434 1432 1431 1429 1426 1423 1420 1418 1415 1411 1408 1405 1402 1398 1392 1387 1382 1375 1367 1361 1356 1352 1348 1343 1339 1334 1330 1327
1443 1442 1440 1439 1438 1437 1436 1434 1433 1432 1431 1429 1427 1425 1422 1419 1416 1413 1409 1405 1401 1397 1395 1391 1385 1380 1373 1367 1361 1354 1349 1344 1339 1335 1330 1325 1321 1318
1441 1440 1439 1438 1436 1435 1434 1433 1431 1430 1428 1426 1423 1420 1417 1414 1411 1408 1404 1400 1395 1390 1386 1384 1378 1372 1366 1360 1353 1347 1341 1336 1332 1327 1322 1316 1312 1309
1440 1439 1437 1436 1435 1433 1432 1431 1429 1427 1425 1423 1420 1416 1413 1409 1406 1403 1399 1395 1390 1385 1380 1375 1370 1364 1358 1351 1347 1339 1334 1329 1324 1320 1316 1310 1302 1299
1438 1436 1435 1434 1432 1431 1430 1428 1426 1424 1422 1419 1416 1412 1408 1404 1401 1397 1393 1389 1384 1378 1373 1369 1363 1358 1351 1343 1337 1334 1328 1322 1316 1311 1307 1302 1295 1289
1436 1434 1433 1431 1430 1429 1427 1425 1423 1421 1418 1414 1411 1407 1404 1400 1396 1392 1388 1383 1378 1372 1366 1362 1357 1352 1346 1338 1328 1322 1321 1315 1309 1303 1298 1293 1286 1281
1433 1432 1430 1429 1427 1425 1423 1421 1419 1416 1413 1410 1406 1402 1398 1394 1390 1386 1381 1377 1372 1365 1359 1353 1349 1345 1338 1331 1322 1312 1309 1307 1303 1297 1290 1284 1278 1272
1430 1429 1427 1425 1424 1421 1419 1417 1414 1411 1408 1404 1400 1396 1392 1388 1384 1379 1375 1370 1364 1358 1351 1345 1340 1335 1330 1325 1316 1307 1299 1295 1292 1287 1282 1277 1273 1265
1427 1425 1423 1422 1420 1417 1415 1412 1409 1406 1402 1398 1394 1390 1386 1382 1377 1373 1368 1363 1357 1350 1344 1337 1332 1328 1323 1317 1309 1301 1293 1287 1281 1275 1270 1268 1264 1259